Location: Macksville High School
(37.9611°N, 99.9654°W)
Time: 01:32:40
(UTC+00:00)

ERS-2 - Pass Details

Date: 17 January 2021
Orbit: 492 x 497 km, 98.6° (Epoch: 07 March)

Event Time Altitude Azimuth Distance (km) Brightness Sun altitude
Rises 11:59:39 0° 162° (SSE) 2,571 6.1 -22.2°
Reaches altitude 10° 12:01:43 10° 161° (SSE) 1,692 5.2 -21.8°
Maximum altitude 12:05:20 75° 76° (ENE) 518 2.2 -21.1°
Enters shadow 12:06:39 38° 358° (N) 778 2.9 -20.8°
